Location: Worth Mountain WMA
(34.9569°N, 81.4819°W)
Time: 11:50:39
(UTC-04:00)

Amateur Radio Satellites - All Passes

Search period start: 04 August 2015 11:20
Search period end: 05 August 2015 11:20
Location: Worth Mountain WMA, 34.9569°N, 81.4819°W

Satellite Date Start Highest point End Downlink Frequencies (MHz)
Time Altitude Azimuth
QB50P2 04 Aug 11:27:03 11:30:58 40° 74° (ENE) 11:34:56 145.880/145.840
CUTE 1.7 + AOD 2 04 Aug 11:30:09 11:30:45 10° 293° (WNW) 11:31:05 437.475
HUMSAT D 04 Aug 11:35:06 11:39:18 50° 99° (E) 11:43:31 437.325/437.525
AAUSAT CUBESAT 2 04 Aug 11:37:09 11:39:35 15° 291° (WNW) 11:41:50 437.432
FUNcube-1 04 Aug 11:37:27 11:41:58 60° 284° (WNW) 11:46:29 145.935
ESTCUBE 1 04 Aug 11:38:48 11:40:47 13° 91° (E) 11:43:01 437.505/2401.250
Cosmos 2491 04 Aug 11:44:36 11:51:45 30° 86° (E) 11:59:07 435.465 / 435.565
Oscar 11 04 Aug 11:44:42 11:48:28 28° 288° (WNW) 11:52:09 145.826/435.025
UKube-1 04 Aug 11:46:05 11:50:04 36° 98° (E) 11:54:04 .
DUCHIFAT 1 04 Aug 11:47:14 11:51:21 67° 76° (ENE) 11:55:31 145.980
UNISAT 6 04 Aug 11:48:37 11:52:43 39° 263° (W) 11:56:53 437.425
UWE-3 04 Aug 11:49:35 11:53:46 33° 287° (WNW) 11:57:55 435.000/436.395/437.385
NANOSAT C BR1 04 Aug 11:52:59 11:57:10 82° 78° (ENE) 12:01:22 145.865
QB50P1 04 Aug 11:53:15 11:57:27 84° 74° (ENE) 12:01:39 145.935-145.965
O/OREOS (USA 219) 04 Aug 11:57:52 12:02:28 74° 252° (WSW) 12:07:02 437.305
50 SAT 04 Aug 12:01:49 12:05:38 43° 99° (E) 12:09:25 437.505
AISAT 04 Aug 12:09:39 12:13:54 46° 99° (E) 12:18:11 437.250
CUBEBUG 1 04 Aug 12:12:58 12:16:36 27° 96° (E) 12:20:18 437.445
CUBEBUG 2 04 Aug 12:13:50 12:16:41 16° 291° (WNW) 12:19:22 437.445
DX 1 04 Aug 12:19:31 12:23:52 77° 283° (WNW) 12:28:12 434.975-435.025
HO-68 04 Aug 12:28:56 12:29:38 10° 304° (NW) 12:29:47 435.675
TIGRISAT 04 Aug 12:32:42 12:34:56 13° 270° (W) 12:36:59 435.000
DELFI C3 04 Aug 12:34:29 12:35:34 11° 292° (WNW) 12:36:25 145.870
SPROUT 04 Aug 12:36:17 12:38:18 13° 91° (E) 12:40:34 437.525
ANTELSAT 04 Aug 12:36:42 12:38:24 12° 271° (W) 12:39:50 437.575/2403.000
BUGSAT 1 04 Aug 12:39:03 12:42:54 42° 261° (W) 12:46:44 437.445
POLYITAN 1 04 Aug 12:39:04 12:42:38 26° 264° (W) 12:46:09 437.675
AIST 1 04 Aug 12:43:57 12:48:14 58° 278° (W) 12:52:30
VELOX 1 04 Aug 12:47:29 12:51:51 65° 285° (WNW) 12:56:14 145.980
POPSAT HIP 1 04 Aug 12:55:26 12:58:20 18° 267° (W) 13:01:06 437.405
QB50P2 04 Aug 13:04:55 13:07:05 13° 269° (W) 13:09:03 145.880/145.840
YUBILEINY 04 Aug 13:09:24 13:17:42 46° 270° (W) 13:25:53 435.215
HUMSAT D 04 Aug 13:12:41 13:14:38 13° 292° (WNW) 13:16:22 437.325/437.525
ESTCUBE 1 04 Aug 13:13:39 13:17:58 46° 286° (WNW) 13:22:14 437.505/2401.250
UKube-1 04 Aug 13:23:09 13:25:56 16° 291° (WNW) 13:28:33 .
50 SAT 04 Aug 13:38:17 13:39:50 12° 292° (WNW) 13:41:09 437.505
Cosmos 2491 04 Aug 13:39:48 13:48:17 51° 283° (WNW) 13:56:41 435.465 / 435.565
Gurwin Techsat 1B 04 Aug 13:42:23 13:44:36 13° 65° (ENE) 13:47:06 435.225
ITAMSAT 1 04 Aug 13:44:00 13:45:28 11° 64° (ENE) 13:47:17 435.822/435.867
Cosmos 2504 04 Aug 13:47:11 13:55:07 42° 76° (ENE) 14:03:12 435.465 / 435.565
AISAT 04 Aug 13:47:46 13:50:08 14° 292° (WNW) 13:52:18 437.250
CUBEBUG 1 04 Aug 13:49:28 13:52:51 22° 289° (WNW) 13:56:07 437.445
Oscar 19 04 Aug 13:50:14 13:55:12 55° 74° (ENE) 14:00:13 437.125/150
ITUPSAT 1 04 Aug 13:59:53 14:00:30 10° 89° (E) 14:01:30 437.325
TISAT 1 04 Aug 14:07:32 14:11:46 80° 283° (WNW) 14:16:00 437.305
SPROUT 04 Aug 14:10:33 14:14:38 42° 286° (WNW) 14:18:41 437.525
BEESAT 04 Aug 14:50:20 14:54:51 42° 98° (E) 14:59:22 436.000
CUSAT 1 04 Aug 14:56:06 15:00:21 31° 79° (E) 15:05:48 437.405
DANDE 04 Aug 15:03:10 15:06:28 21° 78° (ENE) 15:10:40 436.750
JAS-2 04 Aug 15:10:15 15:15:48 37° 68° (ENE) 15:22:06 435.910
SWISSCUBE 04 Aug 15:11:17 15:16:05 80° 103° (ESE) 15:20:50 437.505
Gurwin Techsat 1B 04 Aug 15:18:45 15:24:03 71° 258° (WSW) 15:29:22 435.225
ITAMSAT 1 04 Aug 15:19:11 15:24:24 78° 257° (WSW) 15:29:39 435.822/435.867
Oscar 19 04 Aug 15:32:07 15:34:58 14° 269° (W) 15:37:33 437.125/150
ITUPSAT 1 04 Aug 15:34:11 15:38:55 65° 286° (WNW) 15:43:37 437.325
Cosmos 2504 04 Aug 15:39:31 15:47:14 38° 272° (W) 15:54:49 435.465 / 435.565
VERMONT LUNAR 04 Aug 15:42:57 15:44:15 12° 143° (SE) 15:45:38 437.305
STARS 04 Aug 15:44:20 15:46:28 14° 92° (E) 15:48:49 437.465
AO-7 04 Aug 15:54:01 16:01:55 50° 67° (ENE) 16:09:56 29.400- 29.500
GONETS M04 04 Aug 15:57:49 16:00:59 13° 61° (ENE) 16:04:54
KKS-1 04 Aug 16:18:48 16:23:14 63° 101° (E) 16:27:40 437.445
HORYU 2 04 Aug 16:20:26 16:24:46 56° 75° (ENE) 16:29:11 437.375
BEESAT 04 Aug 16:29:12 16:32:23 17° 292° (WNW) 16:35:24 436.000
CUSAT 1 04 Aug 16:38:36 16:42:50 27° 264° (W) 16:47:57 437.405
DANDE 04 Aug 16:45:26 16:49:29 33° 263° (W) 16:54:37 436.750
JAS-2 04 Aug 16:55:29 17:00:56 32° 267° (W) 17:06:54 435.910
SO-50 04 Aug 17:11:18 17:14:32 17° 46° (NE) 17:17:52 436.795
VERMONT LUNAR 04 Aug 17:17:27 17:20:37 79° 154° (SSE) 17:23:47 437.305
STARS 04 Aug 17:18:56 17:23:10 44° 287° (WNW) 17:27:22 437.465
MOZHAYETS 4 04 Aug 17:36:49 17:41:20 52° 99° (E) 17:45:48
AO-7 04 Aug 17:47:37 17:54:58 32° 263° (W) 18:02:09 29.400- 29.500
GONETS M04 04 Aug 17:50:50 17:59:35 78° 82° (E) 18:08:22
PCSat 04 Aug 17:53:35 17:58:24 32° 56° (NE) 18:03:15 145.827
KKS-1 04 Aug 17:58:12 17:59:24 11° 294° (WNW) 18:00:20 437.445
HORYU 2 04 Aug 18:00:35 18:01:50 11° 270° (W) 18:02:46 437.375
Cubesat XI-IV 04 Aug 18:00:41 18:04:44 23° 68° (ENE) 18:08:57 437.490
PHONESAT 2.4 04 Aug 18:33:46 18:37:03 40° 150° (SSE) 18:40:23 2401.200-2431.200
Cosmos 2499 04 Aug 18:48:14 18:56:37 46° 76° (ENE) 19:05:02 435.465 / 435.565
SO-50 04 Aug 18:50:40 18:55:31 57° 244° (WSW) 19:00:12 436.795
CUTE-I 04 Aug 18:53:54 18:59:15 75° 75° (ENE) 19:04:37 437.470
VERMONT LUNAR 04 Aug 18:54:36 18:57:30 32° 351° (N) 19:00:25 437.305
BRITE-PL 04 Aug 19:15:03 19:15:50 11° 68° (ENE) 19:16:53 437.365/2234.400
MOZHAYETS 4 04 Aug 19:15:49 19:18:08 13° 293° (WNW) 19:20:13
RS-15 04 Aug 19:19:06 19:19:45 10° 99° (E) 19:21:43 29.354- 29.394
HO-68 04 Aug 19:19:18 19:20:40 11° 56° (ENE) 19:22:33 435.675
ISS 04 Aug 19:28:56 19:31:51 32° 132° (SE) 19:34:49 145.825
PCSat 04 Aug 19:37:04 19:41:45 30° 251° (WSW) 19:46:21 145.827
Cubesat XI-IV 04 Aug 19:39:37 19:44:38 39° 262° (W) 19:49:37 437.490
CUBESAT XI-V 04 Aug 19:41:34 19:46:11 85° 283° (WNW) 19:50:46 437.345
GONETS M04 04 Aug 19:49:59 19:55:35 18° 278° (W) 20:00:40
STRAND 1 04 Aug 20:07:48 20:12:42 47° 99° (E) 20:17:36 437.568
DOVE 4 04 Aug 20:11:22 20:13:44 15° 69° (ENE) 20:16:17 437.250
PHONESAT 2.4 04 Aug 20:11:36 20:15:00 47° 345° (NNW) 20:18:25 2401.200-2431.200
VERMONT LUNAR 04 Aug 20:31:45 20:34:39 31° 8° (N) 20:37:33 437.305
SEEDS 04 Aug 20:32:28 20:35:14 18° 70° (ENE) 20:38:11 437.485
CUTE-I 04 Aug 20:38:28 20:39:59 11° 271° (W) 20:41:06 437.470
GOMX 1 04 Aug 20:40:19 20:44:29 62° 76° (ENE) 20:48:35 467.674
CUTE 1.7 + AOD 2 04 Aug 20:40:54 20:44:31 28° 72° (ENE) 20:48:13 437.475
PRISM 04 Aug 20:41:20 20:45:27 85° 284° (WNW) 20:49:32 437.425
Cosmos 2499 04 Aug 20:41:45 20:49:36 36° 273° (W) 20:57:13 435.465 / 435.565
AAUSAT CUBESAT 2 04 Aug 20:48:44 20:51:30 18° 70° (ENE) 20:54:24 437.432
CANX-2 04 Aug 20:49:31 20:53:29 39° 74° (ENE) 20:57:32 2200.000
BRITE-PL 04 Aug 20:49:47 20:54:04 52° 260° (W) 20:58:10 437.365/2234.400
HO-68 04 Aug 21:00:15 21:07:19 69° 72° (ENE) 21:14:26 435.675
Oscar 11 04 Aug 21:02:42 21:03:55 11° 67° (ENE) 21:05:23 145.826/435.025
ISS 04 Aug 21:05:44 21:08:20 21° 328° (NNW) 21:10:55 145.825
UWE-3 04 Aug 21:10:34 21:11:10 10° 66° (ENE) 21:12:02 435.000/436.395/437.385
RS-15 04 Aug 21:19:44 21:30:26 69° 114° (ESE) 21:41:32 29.354- 29.394
CINEMA 3 04 Aug 21:26:58 21:30:58 50° 75° (ENE) 21:35:06 145.822/145.860
CUBEBUG 2 04 Aug 21:31:36 21:34:59 25° 71° (ENE) 21:38:31 437.445
DELFI C3 04 Aug 21:41:32 21:44:27 20° 71° (ENE) 21:47:29 145.870
COMPASS 1 04 Aug 21:44:42 21:48:55 79° 260° (W) 21:53:10 437.405
DOVE 4 04 Aug 21:47:30 21:51:17 33° 263° (W) 21:55:03 437.250
STRAND 1 04 Aug 21:48:08 21:51:34 18° 293° (WNW) 21:54:48 437.568
PHONESAT 2.4 04 Aug 21:50:11 21:53:23 31° 2° (N) 21:56:34 2401.200-2431.200
BEESAT 3 04 Aug 22:01:14 22:03:14 14° 110° (ESE) 22:05:27 437.485
Cosmos 2491 04 Aug 22:02:07 22:03:39 11° 59° (ENE) 22:06:00 435.465 / 435.565
SEEDS 04 Aug 22:06:58 22:10:49 32° 264° (W) 22:14:38 437.485
VERMONT LUNAR 04 Aug 22:08:22 22:11:33 84° 205° (SSW) 22:14:43 437.305
ZACube-1 04 Aug 22:10:11 22:14:07 40° 73° (ENE) 22:18:10 437.345
CUTE 1.7 + AOD 2 04 Aug 22:17:13 22:20:26 20° 266° (W) 22:23:35 437.475
AAUSAT CUBESAT 2 04 Aug 22:23:06 22:26:52 31° 264° (W) 22:30:38 437.432
HUMSAT D 04 Aug 22:24:11 22:27:23 23° 71° (ENE) 22:30:44 437.325/437.525
CANX-2 04 Aug 22:27:15 22:29:38 14° 269° (W) 22:31:50 2200.000
FUNcube-1 04 Aug 22:29:44 22:33:54 69° 76° (ENE) 22:38:11 145.935
Oscar 11 04 Aug 22:35:25 22:39:40 56° 260° (W) 22:43:57 145.826/435.025
UKube-1 04 Aug 22:38:17 22:41:30 21° 70° (ENE) 22:44:49 .
UWE-3 04 Aug 22:43:05 22:47:12 57° 260° (W) 22:51:28 435.000/436.395/437.385
50 SAT 04 Aug 22:43:30 22:45:49 16° 70° (ENE) 22:48:18 437.505
TIGRISAT 04 Aug 22:50:22 22:52:24 13° 90° (E) 22:54:42 435.000
HO-68 04 Aug 22:50:50 22:55:43 18° 269° (W) 23:00:13 435.675
ANTELSAT 04 Aug 22:53:31 22:56:04 15° 91° (E) 22:58:52 437.575/2403.000
AIST 1 04 Aug 22:55:02 22:58:23 23° 75° (ENE) 23:01:50
M-CUBED/EXP-1 PRIME 04 Aug 22:56:13 23:00:51 50° 104° (ESE) 23:05:16 437.505
BEESAT 2 04 Aug 23:02:57 23:06:57 57° 116° (ESE) 23:11:00 435.950
AISAT 04 Aug 23:04:32 23:08:13 28° 71° (ENE) 23:12:00 437.250
CUBEBUG 1 04 Aug 23:07:01 23:09:32 16° 69° (ENE) 23:12:14 437.445
CUBEBUG 2 04 Aug 23:08:19 23:11:39 22° 266° (W) 23:14:57 437.445
DX 1 04 Aug 23:11:39 23:15:54 59° 75° (ENE) 23:20:11 434.975-435.025
DELFI C3 04 Aug 23:15:56 23:19:22 26° 265° (W) 23:22:46 145.870
AUBIESAT-1 04 Aug 23:21:30 23:26:13 83° 106° (ESE) 23:30:42 437.475
AIST 2 04 Aug 23:26:33 23:29:38 20° 111° (ESE) 23:32:52 435.215
PHONESAT 2.4 04 Aug 23:28:14 23:31:42 59° 18° (NNE) 23:35:10 2401.200-2431.200
RS-15 04 Aug 23:34:04 23:43:48 34° 318° (NW) 23:53:38 29.354- 29.394
DUCHIFAT 1 04 Aug 23:36:40 23:38:47 14° 92° (E) 23:41:07 145.980
BEESAT 3 04 Aug 23:37:00 23:40:51 41° 303° (WNW) 23:44:45 437.485
VELOX 1 04 Aug 23:41:29 23:45:52 73° 76° (ENE) 23:50:16 145.980
NANOSAT C BR1 04 Aug 23:42:10 23:44:53 17° 93° (E) 23:47:45 145.865
QB50P1 04 Aug 23:42:37 23:45:24 17° 93° (E) 23:48:21 145.935-145.965
UNISAT 6 04 Aug 23:43:17 23:47:55 55° 100° (E) 23:52:32 437.425
VERMONT LUNAR 04 Aug 23:46:21 23:47:55 13° 217° (SW) 23:49:24 437.305
ZACube-1 04 Aug 23:48:34 23:50:45 13° 269° (W) 23:52:44 437.345
Cosmos 2491 04 Aug 23:53:49 00:02:30 71° 81° (E) 00:11:12 435.465 / 435.565
HUMSAT D 04 Aug 23:59:37 00:03:02 24° 265° (W) 00:06:25 437.325/437.525
YUBILEINY 05 Aug 00:09:30 00:17:28 44° 89° (E) 00:25:38 435.215
ESTCUBE 1 05 Aug 00:09:30 00:14:02 78° 259° (W) 00:18:35 437.505/2401.250
UKube-1 05 Aug 00:13:46 00:17:30 27° 264° (W) 00:21:10 .
50 SAT 05 Aug 00:16:41 00:20:09 30° 263° (W) 00:23:37 437.505
BUGSAT 1 05 Aug 00:24:19 00:27:59 31° 97° (E) 00:31:42 437.445
TIGRISAT 05 Aug 00:24:54 00:29:30 53° 285° (WNW) 00:34:04 435.000
POLYITAN 1 05 Aug 00:26:46 00:31:02 62° 101° (E) 00:35:18 437.675
ANTELSAT 05 Aug 00:28:36 00:33:08 46° 286° (WNW) 00:37:37 437.575/2403.000
O/OREOS (USA 219) 05 Aug 00:29:05 00:32:05 18° 102° (ESE) 00:35:16 437.305
M-CUBED/EXP-1 PRIME 05 Aug 00:32:11 00:35:11 16° 298° (WNW) 00:37:56 437.505
AIST 1 05 Aug 00:32:38 00:35:58 22° 270° (W) 00:39:11
AISAT 05 Aug 00:41:22 00:44:48 21° 265° (W) 00:48:08 437.250
CUBEBUG 1 05 Aug 00:41:32 00:45:37 38° 262° (W) 00:49:40 437.445
POPSAT HIP 1 05 Aug 00:42:05 00:46:22 87° 283° (WNW) 00:50:39 437.405
BEESAT 2 05 Aug 00:43:27 00:45:24 13° 313° (NW) 00:47:13 435.950
QB50P2 05 Aug 00:50:54 00:55:09 65° 284° (WNW) 00:59:23 145.880/145.840
TISAT 1 05 Aug 00:56:17 01:00:16 47° 74° (ENE) 01:04:18 437.305
AUBIESAT-1 05 Aug 00:59:56 01:00:15 10° 301° (WNW) 01:00:17 437.475
SPROUT 05 Aug 01:00:54 01:05:10 86° 257° (WSW) 01:09:27 437.525
AIST 2 05 Aug 01:04:13 01:08:02 31° 306° (NW) 01:11:50 435.215
PHONESAT 2.4 05 Aug 01:06:28 01:09:32 28° 213° (SSW) 01:12:34 2401.200-2431.200
DUCHIFAT 1 05 Aug 01:10:48 01:14:48 40° 286° (WNW) 01:18:46 145.980
NANOSAT C BR1 05 Aug 01:16:59 01:20:49 33° 287° (WNW) 01:24:37 145.865
QB50P1 05 Aug 01:17:32 01:21:21 32° 287° (WNW) 01:25:08 145.935-145.965
UNISAT 6 05 Aug 01:21:50 01:24:16 14° 293° (WNW) 01:26:26 437.425
JUGNU 05 Aug 01:46:47 01:49:15 13° 168° (SSE) 01:51:49 437.505
Cosmos 2491 05 Aug 01:52:32 01:58:39 21° 277° (W) 02:04:18 435.465 / 435.565
BEESAT 05 Aug 01:53:40 01:57:57 34° 71° (ENE) 02:02:17 436.000
RS-15 05 Aug 01:56:42 02:01:26 13° 351° (N) 02:06:02 29.354- 29.394
ISS 05 Aug 01:59:55 02:01:32 13° 27° (NNE) 02:03:13 145.825
BUGSAT 1 05 Aug 02:00:30 02:03:14 17° 290° (WNW) 02:05:50 437.445
Oscar 19 05 Aug 02:05:37 02:09:50 25° 95° (E) 02:14:09 437.125/150
YUBILEINY 05 Aug 02:06:35 02:14:27 35° 287° (WNW) 02:22:12 435.215
O/OREOS (USA 219) 05 Aug 02:07:14 02:11:17 33° 296° (WNW) 02:15:21 437.305
SWISSCUBE 05 Aug 02:14:23 02:19:06 63° 75° (ENE) 02:23:52 437.505
Cosmos 2504 05 Aug 02:14:42 02:20:37 30° 86° (E) 02:27:04 435.465 / 435.565
TISAT 1 05 Aug 02:34:59 02:36:22 11° 270° (W) 02:37:28 437.305
ITUPSAT 1 05 Aug 02:37:24 02:42:13 82° 258° (WSW) 02:47:03 437.325
KKS-1 05 Aug 03:13:50 03:17:52 37° 73° (ENE) 03:21:58 437.445
BEESAT 05 Aug 03:32:12 03:35:52 21° 266° (W) 03:39:25 436.000
JUGNU 05 Aug 03:33:39 03:37:35 18° 177° (S) 03:41:31 437.505
ISS 05 Aug 03:35:05 03:38:20 78° 224° (SW) 03:41:35 145.825
ITAMSAT 1 05 Aug 03:35:32 03:40:32 49° 99° (E) 03:45:32 435.822/435.867
Gurwin Techsat 1B 05 Aug 03:38:20 03:43:37 62° 101° (E) 03:48:51 435.225
Oscar 19 05 Aug 03:44:36 03:49:13 32° 289° (WNW) 03:53:46 437.125/150
SRMSAT 05 Aug 03:46:31 03:49:14 13° 169° (SSE) 03:52:02 437.500
SWISSCUBE 05 Aug 03:55:59 03:57:27 11° 270° (W) 03:58:34 437.505
AO-7 05 Aug 04:01:05 04:06:08 18° 91° (E) 04:11:40 29.400- 29.500
CUSAT 1 05 Aug 04:02:43 04:05:02 23° 96° (E) 04:07:12 437.405
Cosmos 2504 05 Aug 04:05:50 04:12:35 42° 284° (WNW) 04:19:43 435.465 / 435.565
JAS-2 05 Aug 04:07:03 04:14:35 49° 97° (E) 04:21:51 435.910
STARS 05 Aug 04:12:07 04:16:28 78° 258° (WSW) 04:20:51 437.465
RS-15 05 Aug 04:13:07 04:20:36 19° 27° (NNE) 04:28:44 29.354- 29.394
DANDE 05 Aug 04:13:48 04:16:05 19° 97° (E) 04:18:13 436.750
HORYU 2 05 Aug 04:16:31 04:18:47 14° 91° (E) 04:21:17 437.375
MOZHAYETS 4 05 Aug 04:35:33 04:39:40 34° 72° (ENE) 04:43:53
KKS-1 05 Aug 04:51:49 04:54:41 16° 267° (W) 04:57:21 437.445
GONETS M04 05 Aug 04:55:26 05:00:02 17° 82° (E) 05:05:14
ITAMSAT 1 05 Aug 05:16:15 05:19:42 18° 293° (WNW) 05:22:56 435.822/435.867
Gurwin Techsat 1B 05 Aug 05:20:07 05:23:08 15° 294° (WNW) 05:25:52 435.225
JUGNU 05 Aug 05:22:17 05:25:55 16° 187° (S) 05:29:30 437.505
SRMSAT 05 Aug 05:33:48 05:37:42 18° 178° (S) 05:41:37 437.500
HORYU 2 05 Aug 05:51:23 05:55:42 44° 286° (WNW) 05:59:56 437.375
AO-7 05 Aug 05:51:32 05:59:52 80° 289° (WNW) 06:08:09 29.400- 29.500
JAS-2 05 Aug 05:52:28 05:59:19 33° 293° (WNW) 06:05:47 435.910
MOZHAYETS 4 05 Aug 06:13:33 06:16:59 20° 267° (W) 06:20:18
Cubesat XI-IV 05 Aug 06:23:28 06:24:24 11° 88° (E) 06:25:46 437.490
RS-15 05 Aug 06:24:43 06:36:22 61° 55° (NE) 06:48:28 29.354- 29.394
CUBESAT XI-V 05 Aug 06:41:22 06:45:59 63° 75° (ENE) 06:50:36 437.345
GONETS M04 05 Aug 06:47:15 06:55:59 83° 277° (W) 07:04:43
CUTE-I 05 Aug 07:14:41 07:19:36 39° 98° (E) 07:24:33 437.470
STRAND 1 05 Aug 07:20:20 07:25:15 49° 73° (ENE) 07:30:13 437.568
Cosmos 2499 05 Aug 07:21:20 07:27:53 36° 88° (E) 07:35:04 435.465 / 435.565
SRMSAT 05 Aug 07:22:43 07:26:11 16° 188° (S) 07:29:35 437.500
BEESAT 2 05 Aug 07:26:19 07:28:28 14° 47° (NE) 07:30:46 435.950
PRISM 05 Aug 07:27:54 07:31:51 43° 74° (ENE) 07:35:50 437.425
AO-7 05 Aug 07:46:56 07:51:35 16° 305° (NW) 07:55:43 29.400- 29.500
BEESAT 3 05 Aug 07:58:22 08:02:09 38° 56° (NE) 08:05:54 437.485
Cubesat XI-IV 05 Aug 07:59:51 08:05:10 75° 285° (WNW) 08:10:28 437.490
CUBESAT XI-V 05 Aug 08:23:04 08:23:54 10° 271° (W) 08:24:22 437.345
PCSat 05 Aug 08:31:27 08:36:43 57° 113° (ESE) 08:42:03 145.827
HO-68 05 Aug 08:34:15 08:37:32 14° 89° (E) 08:41:21 435.675
RS-15 05 Aug 08:37:53 08:48:29 37° 252° (WSW) 08:59:00 29.354- 29.394
GOMX 1 05 Aug 08:44:47 08:48:40 25° 96° (E) 08:52:51 467.674
GONETS M04 05 Aug 08:50:04 08:54:27 14° 298° (WNW) 08:58:09
CUTE-I 05 Aug 08:55:20 08:59:29 23° 292° (WNW) 09:03:28 437.470
BRITE-PL 05 Aug 08:56:31 09:01:02 58° 101° (E) 09:05:56 437.365/2234.400
SO-50 05 Aug 09:01:20 09:06:03 80° 300° (WNW) 09:10:57 436.795
STRAND 1 05 Aug 09:01:28 09:04:47 16° 268° (W) 09:07:51 437.568
BEESAT 2 05 Aug 09:02:55 09:06:49 47° 245° (WSW) 09:10:39 435.950
PRISM 05 Aug 09:05:39 09:07:32 12° 268° (W) 09:09:13 437.425
Cosmos 2499 05 Aug 09:14:11 09:21:01 37° 287° (WNW) 09:28:15 435.465 / 435.565
CINEMA 3 05 Aug 09:25:22 09:28:35 18° 93° (E) 09:32:04 145.822/145.860
AIST 2 05 Aug 09:28:26 09:32:35 61° 59° (ENE) 09:36:38 435.215
COMPASS 1 05 Aug 09:32:10 09:35:18 21° 94° (E) 09:38:31 437.405
BEESAT 3 05 Aug 09:37:32 09:39:47 14° 250° (WSW) 09:41:50 437.485
M-CUBED/EXP-1 PRIME 05 Aug 09:40:57 09:44:42 36° 67° (ENE) 09:48:48 437.505
DOVE 4 05 Aug 09:48:10 09:52:58 75° 101° (ESE) 09:58:03 437.250
SEEDS 05 Aug 09:54:05 09:58:13 51° 99° (E) 10:02:21 437.485
ZACube-1 05 Aug 10:04:12 10:05:25 11° 89° (E) 10:06:59 437.345
CUTE 1.7 + AOD 2 05 Aug 10:04:21 10:08:39 88° 91° (E) 10:12:56 437.475
AUBIESAT-1 05 Aug 10:05:26 10:09:29 59° 70° (ENE) 10:13:52 437.475
AAUSAT CUBESAT 2 05 Aug 10:08:47 10:12:51 49° 99° (E) 10:16:53 437.432
CANX-2 05 Aug 10:13:31 10:17:47 63° 284° (WNW) 10:21:59 2200.000
PCSat 05 Aug 10:16:44 10:20:34 19° 310° (NW) 10:24:16 145.827
HO-68 05 Aug 10:18:57 10:26:11 85° 286° (WNW) 10:33:23 435.675
FUNcube-1 05 Aug 10:22:08 10:25:14 18° 92° (E) 10:28:29 145.935
GOMX 1 05 Aug 10:22:41 10:26:46 29° 287° (WNW) 10:31:00 467.674
YUBILEINY 05 Aug 10:25:03 10:30:14 18° 64° (ENE) 10:35:59 435.215
Oscar 11 05 Aug 10:26:13 10:30:07 32° 97° (E) 10:34:03 145.826/435.025
UWE-3 05 Aug 10:35:59 10:40:17 36° 97° (E) 10:44:38 435.000/436.395/437.385
BRITE-PL 05 Aug 10:37:16 10:39:17 12° 291° (WNW) 10:41:04 437.365/2234.400
UNISAT 6 05 Aug 10:39:21 10:43:10 31° 72° (ENE) 10:47:09 437.425
O/OREOS (USA 219) 05 Aug 10:41:23 10:44:56 22° 61° (ENE) 10:48:36 437.305
SO-50 05 Aug 10:46:16 10:47:30 11° 319° (NW) 10:48:29 436.795
DELFI C3 05 Aug 10:57:26 11:01:23 50° 99° (E) 11:05:18 145.870
Cosmos 2491 05 Aug 10:59:22 11:03:11 14° 81° (E) 11:07:42 435.465 / 435.565
CUBEBUG 2 05 Aug 11:01:01 11:05:46 88° 275° (W) 11:10:32 437.445
CINEMA 3 05 Aug 11:01:24 11:05:55 41° 286° (WNW) 11:10:33 145.822/145.860
DX 1 05 Aug 11:05:04 11:06:57 13° 91° (E) 11:09:05 434.975-435.025
COMPASS 1 05 Aug 11:07:24 11:10:57 26° 288° (WNW) 11:14:24 437.405
BUGSAT 1 05 Aug 11:12:35 11:14:46 15° 69° (ENE) 11:17:07 437.445
